Regional Weather Roundup
Issued by NWS

Home | Current Version | Previous Version | Text Only | Print | Product List | Glossary Off
Versions: 1 2 3 4 5 6 7 8 9 10 11 12 13 14 15 16 17 18 19 20 21 22 23 24 25 26 27 28 29 30 31 32 33 34 35 36 37 38 39 40 41 42 43 44 45 46 47 48 49 50

000
ASUS45 KABQ 222310
RWRNM
NEW MEXICO REGIONAL WEATHER ROUNDUP
NATIONAL WEATHER SERVICE ALBUQUERQUE NM
500 PM MDT FRI MAY 22 2015

NOTE: "FAIR" MEANS FEW OR NO CLOUDS BELOW 12,000 FEET AGL WITH NO
       SIGNIFICANT WEATHER OR OBSTRUCTIONS TO VISION.

      THIS PRODUCT IS RELEASED AS TWO VERSIONS.  ONE VERSION NEAR
      THE TOP OF THE HOUR CONTAINING PRELIMINARY DATA FROM ALBUQUERQUE
      AND OTHER STATIONS.  A FINAL VERSION WITH ADDITIONAL DATA IS
      ISSUED ABOUT 10 MINUTES AFTER THE HOUR.

NMZ501-503-504-510>518-230000-
NORTHWEST PLATEAU/NORTHCENTRAL MOUNTAINS

CITY           SKY/WX    TMP DP  RH WIND       PRES   REMARKS
FARMINGTON     SUNNY     68  32  26 SE13      29.87F
LOS ALAMOS     MOSUNNY   61  36  38 S8        30.06F
SANTA FE       CLOUDY    69  32  25 SE24G31   30.00F
TAOS           SUNNY     63  36  36 SW13G18   30.05F
ANGEL FIRE     CLOUDY    54  35  48 W7        30.11F

$$
NMZ402-403-502-505>509-230000-
WESTCENTRAL MOUNTAINS/SOUTHWEST MOUNTAINS

CITY           SKY/WX    TMP DP  RH WIND       PRES   REMARKS
GALLUP         PTSUNNY   67  20  16 W21G30    29.93S
GRANTS         CLOUDY    65  32  29 SE9G21    29.95F
SILVER CITY    SUNNY     77  14   9 SW21G38   29.98F

$$
NMZ407-409-411-412-230000-
SOUTHERN DESERTS

CITY           SKY/WX    TMP DP  RH WIND       PRES   REMARKS
LORDSBURG      FAIR      82  18   9 S20G36    29.90F
DEMING         SUNNY     84  11   6 S17G31    29.89F
LAS CRUCES     MOSUNNY   84  15   8 SW18      29.92F
HOLLOMAN AFB   MOSUNNY   83  36  18 S16G30    29.89F
ALAMOGORDO     MOSUNNY   82  32  16 S20G25    29.92F
T OR C         MOSUNNY   81  16   9 S25G35    29.90F

$$
NMZ519>523-230000-
CENTRAL VALLEYS/CENTRAL HIGHLANDS

CITY           SKY/WX    TMP DP  RH WIND       PRES   REMARKS
ALBUQUERQUE    MOSUNNY   74  29  19 S24G32    29.94F
DOUBLE EAGLE   PTSUNNY   70  36  28 S21       29.96F
MORIARTY ARPT  FAIR      68  33  27 S18       30.03F
CLINES CORNERS SUNNY     65  30  27 S26G33    30.05F
BELEN          FAIR      76  27  16 S26G33    29.92F
SOCORRO        FAIR      78  33  19 S22G35    29.91F

$$
NMZ524>526-539-540-230000-
SOUTHCENTRAL MOUNTAINS

CITY           SKY/WX    TMP DP  RH WIND       PRES   REMARKS
RUIDOSO        MOSUNNY   63  50  63 SE15      30.11S

$$
NMZ527>531-230000-
NORTHEAST HIGHLANDS/NORTHEAST PLAINS

CITY           SKY/WX    TMP DP  RH WIND       PRES   REMARKS
LAS VEGAS      MOSUNNY   64  35  34 SW23G33   30.05F
RATON          PTSUNNY   68  36  30 S26G33    29.98F
CLAYTON        MOSUNNY   67  50  54 S25G32    30.00F

$$
NMZ532>537-230000-
EASTCENTRAL PLAINS

CITY           SKY/WX    TMP DP  RH WIND       PRES   REMARKS
TUCUMCARI      SUNNY     72  51  47 S15       29.99F
CANNON AFB     NOT AVBL
CLOVIS AIRPORT PTSUNNY   66  54  63 S13       30.05F

$$
NMZ028-029-538-230000-
SOUTHEAST PLAINS

CITY           SKY/WX    TMP DP  RH WIND       PRES   REMARKS
ROSWELL        SUNNY     76  54  46 SE17G25   29.95F
ARTESIA        SUNNY     77  55  47 SE18      29.96F
CARLSBAD       SUNNY     78  60  53 SE13      29.94F
HOBBS          PTSUNNY   68  64  88 E10       30.03F


$$


USA.gov is the U.S. government's official web portal to all federal, state and local government web resources and services.